When you browse on this site, cookies collect data to enhance your experience and personalize the content and advertising you see.
Visit our Privacy Policy to learn more. By continuing to use the site, you agree to this use of cookies and data.
  • In Lithuania
  • List of Countries
  • For 7 days
  • Water Temperature
  • Satellite Maps
  • Weather Map
  • Weather Widgets
  • user-avatar
    Login

    Hourly Weather Wlora

    Today, 21 April, Sunday

    Time Temperature Precipitation Wind Pressure Humidity
    00:00 +16°C° 0 mm 3 mps 767 mmHg 71%
    01:00 +15°C° 0 mm 4 mps 767 mmHg 73%
    02:00 +15°C° 0 mm 5 mps 767 mmHg 77%
    03:00 +15°C° 0 mm 6 mps 767 mmHg 81%
    04:00 +14°C° 0 mm 7 mps 767 mmHg 85%
    05:00 +15°C° 0 mm 8 mps 767 mmHg 86%
    06:00 +15°C° 0 mm 8 mps 767 mmHg 86%
    07:00 +15°C° 0 mm 8 mps 767 mmHg 86%
    08:00 +16°C° 0.1 mm 8 mps 767 mmHg 85%
    09:00 +17°C° 0.1 mm 8 mps 767 mmHg 85%
    10:00 +17°C° 0.1 mm 8 mps 767 mmHg 85%
    11:00 +17°C° 0.1 mm 8 mps 767 mmHg 86%
    12:00 +17°C° 0.1 mm 7 mps 767 mmHg 87%
    13:00 +17°C° 0.1 mm 7 mps 767 mmHg 88%
    14:00 +16°C° 0 mm 7 mps 767 mmHg 90%
    15:00 +16°C° 0 mm 6 mps 766 mmHg 92%
    16:00 +16°C° 0 mm 6 mps 766 mmHg 94%
    17:00 +15°C° 0 mm 6 mps 766 mmHg 95%
    18:00 +15°C° 0 mm 5 mps 766 mmHg 96%
    19:00 +15°C° 0 mm 5 mps 765 mmHg 97%
    20:00 +15°C° 0 mm 4 mps 766 mmHg 97%
    21:00 +15°C° 0 mm 4 mps 766 mmHg 97%
    22:00 +15°C° 0 mm 4 mps 766 mmHg 98%
    23:00 +15°C° 0 mm 4 mps 766 mmHg 97%

    Tomorrow, 22 April, Monday

    Time Temperature Precipitation Wind Pressure Humidity
    00:00 +15°C° 0 mm 4 mps 765 mmHg 97%
    01:00 +14°C° 0 mm 4 mps 765 mmHg 97%
    02:00 +14°C° 0 mm 4 mps 765 mmHg 97%
    03:00 +14°C° 0 mm 5 mps 764 mmHg 97%
    04:00 +14°C° 0 mm 5 mps 764 mmHg 97%
    05:00 +14°C° 0 mm 5 mps 764 mmHg 95%
    06:00 +14°C° 0 mm 6 mps 764 mmHg 93%
    07:00 +15°C° 0 mm 6 mps 763 mmHg 91%
    08:00 +16°C° 0 mm 7 mps 763 mmHg 86%
    09:00 +17°C° 0 mm 7 mps 763 mmHg 81%
    10:00 +18°C° 0 mm 8 mps 763 mmHg 76%
    11:00 +20°C° 0 mm 8 mps 763 mmHg 71%
    12:00 +21°C° 0 mm 9 mps 762 mmHg 67%
    13:00 +22°C° 0 mm 9 mps 762 mmHg 63%
    14:00 +21°C° 0 mm 10 mps 762 mmHg 67%
    15:00 +19°C° 0 mm 11 mps 761 mmHg 71%
    16:00 +18°C° 0 mm 11 mps 761 mmHg 75%
    17:00 +17°C° 0.8 mm 11 mps 761 mmHg 81%
    18:00 +16°C° 0.8 mm 11 mps 760 mmHg 86%
    19:00 +14°C° 0.8 mm 11 mps 760 mmHg 92%
    20:00 +14°C° 0 mm 10 mps 760 mmHg 88%
    21:00 +16°C° 0 mm 9 mps 760 mmHg 85%
    22:00 +16°C° 0 mm 7 mps 760 mmHg 82%
    23:00 +16°C° 0.2 mm 9 mps 760 mmHg 81%

    Day after tomorrow, 23 April, Tuesday

    Time Temperature Precipitation Wind Pressure Humidity
    00:00 +16°C° 0.2 mm 10 mps 759 mmHg 80%
    01:00 +16°C° 0.2 mm 11 mps 759 mmHg 80%
    02:00 +16°C° 0 mm 10 mps 759 mmHg 77%
    03:00 +16°C° 0 mm 10 mps 758 mmHg 75%
    04:00 +16°C° 0 mm 9 mps 758 mmHg 72%
    05:00 +17°C° 0 mm 10 mps 758 mmHg 69%
    06:00 +18°C° 0 mm 10 mps 758 mmHg 65%
    07:00 +19°C° 0 mm 11 mps 758 mmHg 62%
    08:00 +19°C° 0 mm 12 mps 758 mmHg 60%
    09:00 +20°C° 0 mm 13 mps 759 mmHg 57%
    10:00 +22°C° 0 mm 13 mps 759 mmHg 55%
    11:00 +22°C° 0 mm 14 mps 759 mmHg 57%
    12:00 +22°C° 0 mm 14 mps 759 mmHg 58%
    13:00 +22°C° 0 mm 14 mps 760 mmHg 59%
    14:00 +22°C° 0 mm 13 mps 760 mmHg 60%
    15:00 +22°C° 0 mm 13 mps 760 mmHg 60%
    16:00 +20°C° 0 mm 13 mps 760 mmHg 61%
    17:00 +19°C° 0 mm 12 mps 760 mmHg 64%
    18:00 +18°C° 0 mm 12 mps 761 mmHg 66%
    19:00 +17°C° 0 mm 12 mps 761 mmHg 69%
    20:00 +17°C° 0 mm 11 mps 762 mmHg 68%
    21:00 +17°C° 0 mm 10 mps 762 mmHg 66%
    22:00 +17°C° 0 mm 10 mps 763 mmHg 65%
    23:00 +16°C° 0 mm 9 mps 763 mmHg 64%

    24 April, Wednesday

    Time Temperature Precipitation Wind Pressure Humidity
    00:00 +16°C° 0 mm 8 mps 763 mmHg 64%
    01:00 +16°C° 0 mm 7 mps 763 mmHg 63%
    02:00 +16°C° 0 mm 6 mps 763 mmHg 62%
    03:00 +16°C° 0 mm 6 mps 763 mmHg 62%
    04:00 +16°C° 0 mm 5 mps 763 mmHg 61%
    05:00 +18°C° 0 mm 4 mps 763 mmHg 60%
    06:00 +20°C° 0 mm 4 mps 763 mmHg 60%
    07:00 +21°C° 0 mm 3 mps 763 mmHg 60%
    08:00 +23°C° 0 mm 4 mps 763 mmHg 54%
    09:00 +25°C° 0 mm 4 mps 763 mmHg 48%
    10:00 +27°C° 0 mm 4 mps 764 mmHg 42%
    11:00 +27°C° 0 mm 5 mps 763 mmHg 44%
    12:00 +27°C° 0 mm 7 mps 763 mmHg 47%
    13:00 +27°C° 0 mm 8 mps 763 mmHg 49%
    14:00 +27°C° 0 mm 9 mps 763 mmHg 52%
    15:00 +26°C° 0 mm 9 mps 763 mmHg 54%
    16:00 +24°C° 0 mm 9 mps 763 mmHg 56%
    17:00 +23°C° 0 mm 9 mps 763 mmHg 61%
    18:00 +21°C° 0 mm 9 mps 763 mmHg 67%
    19:00 +20°C° 0 mm 8 mps 764 mmHg 72%
    20:00 +20°C° 0 mm 8 mps 764 mmHg 71%
    21:00 +18°C° 0 mm 8 mps 764 mmHg 69%
    22:00 +18°C° 0 mm 7 mps 764 mmHg 68%
    23:00 +18°C° 0 mm 7 mps 764 mmHg 64%

    25 April, Thursday

    Time Temperature Precipitation Wind Pressure Humidity
    00:00 +19°C° 0 mm 6 mps 764 mmHg 61%
    01:00 +19°C° 0 mm 6 mps 764 mmHg 57%
    02:00 +19°C° 0.1 mm 6 mps 764 mmHg 59%
    03:00 +19°C° 0.1 mm 6 mps 764 mmHg 62%
    04:00 +19°C° 0.1 mm 6 mps 763 mmHg 64%
    05:00 +20°C° 0.2 mm 5 mps 764 mmHg 63%
    06:00 +21°C° 0.2 mm 5 mps 764 mmHg 63%
    07:00 +22°C° 0.2 mm 4 mps 764 mmHg 62%
    08:00 +25°C° 0 mm 5 mps 764 mmHg 56%
    09:00 +26°C° 0 mm 5 mps 764 mmHg 50%
    10:00 +27°C° 0 mm 6 mps 764 mmHg 44%
    11:00 +27°C° 0 mm 7 mps 764 mmHg 48%
    12:00 +26°C° 0 mm 8 mps 764 mmHg 52%
    13:00 +26°C° 0 mm 10 mps 763 mmHg 56%
    14:00 +23°C° 0.1 mm 10 mps 763 mmHg 62%
    15:00 +22°C° 0.1 mm 10 mps 763 mmHg 67%
    16:00 +21°C° 0.1 mm 11 mps 763 mmHg 73%
    17:00 +21°C° 0 mm 9 mps 763 mmHg 74%
    18:00 +21°C° 0 mm 7 mps 763 mmHg 74%
    19:00 +21°C° 0 mm 6 mps 763 mmHg 74%
    20:00 +20°C° 0 mm 5 mps 763 mmHg 72%
    21:00 +20°C° 0 mm 5 mps 763 mmHg 70%
    22:00 +20°C° 0 mm 4 mps 764 mmHg 67%
    23:00 +20°C° 0 mm 4 mps 763 mmHg 66%

    26 April, Friday

    Time Temperature Precipitation Wind Pressure Humidity
    00:00 +19°C° 0 mm 4 mps 763 mmHg 65%
    01:00 +19°C° 0 mm 4 mps 763 mmHg 65%
    02:00 +19°C° 0 mm 4 mps 763 mmHg 66%
    03:00 +17°C° 0 mm 5 mps 763 mmHg 68%
    04:00 +17°C° 0 mm 5 mps 763 mmHg 69%
    05:00 +19°C° 0 mm 5 mps 763 mmHg 67%
    06:00 +21°C° 0 mm 5 mps 763 mmHg 66%
    07:00 +22°C° 0 mm 5 mps 763 mmHg 64%
    08:00 +23°C° 0 mm 5 mps 762 mmHg 59%
    09:00 +26°C° 0 mm 5 mps 762 mmHg 53%
    10:00 +27°C° 0 mm 5 mps 762 mmHg 48%
    11:00 +27°C° 0 mm 4 mps 762 mmHg 49%
    12:00 +27°C° 0 mm 4 mps 762 mmHg 51%
    13:00 +27°C° 0 mm 4 mps 762 mmHg 53%
    14:00 +27°C° 0 mm 4 mps 761 mmHg 54%
    15:00 +26°C° 0 mm 4 mps 761 mmHg 56%
    16:00 +26°C° 0 mm 3 mps 761 mmHg 58%
    17:00 +25°C° 0 mm 3 mps 761 mmHg 62%
    18:00 +22°C° 0 mm 3 mps 761 mmHg 66%
    19:00 +21°C° 0 mm 3 mps 761 mmHg 70%
    20:00 +20°C° 0 mm 3 mps 761 mmHg 70%
    21:00 +20°C° 0 mm 3 mps 761 mmHg 70%
    22:00 +20°C° 0 mm 3 mps 761 mmHg 70%
    23:00 +19°C° 0 mm 3 mps 761 mmHg 70%
    Show more